Meteo Giornale » Osservazioni meteo Stati Uniti (USA) » Burlington-Mt V

ore: 12:35 - Osservazioni Meteo Burlington-Mt V
Lat. 48° 28' N Lon. 122° 25' W Alt. 43 metri s.l.m.

molto_nuvoloso

19 °C

Molto Nuvoloso

Temp. 24 Ore

11 °C

22 °C

Sud/Sud-Ovest

20.3 Km/h

Dew point 13 °C

Umidità 68 %

Visibilità  10 Km

Il sole sorge alle ore 06:27

Il sole tramonta alle ore 19:51

Data e Ora Cielo e Fenomeni T °C DP °C Um. % Pres. hPa Vis. km Vento km/h
Oggi h: 12:35 molto_nuvoloso Molto Nuvoloso 19 13 68 1009 10 S/SO 20.3
Oggi h: 12:15 poco_nuvoloso Poco Nuvoloso 20 13 64 1009 10 S 16.7
Oggi h: 11:55 poco_nuvoloso Poco Nuvoloso 20 13 64 1009 10 S/SO 18.5
Oggi h: 11:35 sereno Sereno 20 13 64 1009 10 S/SO 16.7
Oggi h: 11:15 poco_nuvoloso Poco Nuvoloso 20 13 64 1009 10 S/SO 16.7
Oggi h: 10:55 poco_nuvoloso Poco Nuvoloso 19 13 68 1009 10 S/SO 16.7
Oggi h: 10:35 sereno Sereno 19 13 68 1009 10 S/SO 13
Oggi h: 10:15 sereno Sereno 19 13 68 1009 10 N 9.3
Oggi h: 09:55 sereno Sereno 18 13 72 1009 10 S 9.3
Oggi h: 09:35 sereno Sereno 17 13 77 1009 10 N 0
Oggi h: 09:15 sereno Sereno 16 13 82 1009 10 N 0
Oggi h: 08:55 sereno Sereno 16 13 82 1009 10 N 0
Oggi h: 08:35 sereno Sereno 15 13 87 1009 10 SE 7.4
Oggi h: 08:15 sereno Sereno 14 13 93 1009 10 N 0
Oggi h: 07:55 sereno Sereno 13 12 93 1009 10 S/SE 7.4
Oggi h: 07:35 sereno Sereno 13 12 93 1009 10 N 5.5
Oggi h: 07:15 sereno Sereno 12 12 100 1009 10 S 9.3
Oggi h: 06:55 sereno Sereno 11 11 100 1009 13 N 9.3
Oggi h: 06:35 foschia Foschia 11 11 100 1009 5 N 0
Oggi h: 06:15 sereno Sereno 12 11 93 1008 10 N 0
Oggi h: 05:55 foschia Foschia 11 11 100 1008 5 N 0
Oggi h: 05:35 foschia Foschia 11 11 100 1008 8 N 0
Oggi h: 05:15 sereno Sereno 12 12 100 1008 10 N 0
Oggi h: 04:55 poco_nuvoloso Poco Nuvoloso 12 12 100 1008 10 N 0
Oggi h: 04:35 molto_nuvoloso Molto Nuvoloso 12 11 93 1008 10 N 0
Oggi h: 04:15 foschia Foschia 11 11 100 1009 8 N 0
Oggi h: 03:55 coperto Coperto 12 12 100 1009 10 N 0
Oggi h: 03:35 foschia Foschia 12 12 100 1009 10 N 0
Oggi h: 03:15 poco_nuvoloso Poco Nuvoloso 12 12 100 1009 10 N 0
Oggi h: 02:55 poco_nuvoloso Poco Nuvoloso 12 12 100 1009 10 N 0
Oggi h: 02:35 poco_nuvoloso Poco Nuvoloso 12 12 100 1008 14 N 0
Oggi h: 02:15 nuvoloso Nuvoloso 12 12 100 1008 10 N 0
Oggi h: 01:55 poco_nuvoloso Poco Nuvoloso 12 12 100 1008 13 N 0
Oggi h: 01:35 poco_nuvoloso Poco Nuvoloso 12 12 100 1008 10 N 0
Oggi h: 01:15 poco_nuvoloso Poco Nuvoloso 13 12 93 1008 10 N 0
Oggi h: 00:55 nuvoloso Nuvoloso 13 12 93 1008 10 N 0
Oggi h: 00:35 poco_nuvoloso Poco Nuvoloso 12 12 100 1008 10 N 0
Oggi h: 00:15 poco_nuvoloso Poco Nuvoloso 13 12 93 1008 10 N 0
Ieri h: 23:55 molto_nuvoloso Molto Nuvoloso 13 12 93 1008 10 N 0
Ieri h: 23:35 molto_nuvoloso Molto Nuvoloso 13 12 93 1009 10 N 0
Ieri h: 23:15 molto_nuvoloso Molto Nuvoloso 13 12 93 1009 10 N 0
Ieri h: 22:55 coperto Coperto 13 12 93 1009 10 N 0
Ieri h: 22:35 coperto Coperto 13 12 93 1009 10 N 0
Ieri h: 22:15 coperto Coperto 14 12 87 1009 10 N 5.5
Ieri h: 21:55 coperto Coperto 15 12 82 1009 10 N 0
Ieri h: 21:35 coperto Coperto 15 12 82 1008 10 N 0
Ieri h: 21:15 coperto Coperto 16 13 82 1008 10 O/NO 9.3
Ieri h: 20:55 coperto Coperto 16 13 82 1008 10 NO 11.1
Ieri h: 20:35 molto_nuvoloso Molto Nuvoloso 16 12 77 1008 10 O/NO 11.1
Ieri h: 20:15 poco_nuvoloso Poco Nuvoloso 17 12 72 1008 10 O/NO 13
Ieri h: 19:55 sereno Sereno 17 12 72 1008 10 NO 14.8
Ieri h: 19:35 sereno Sereno 17 12 72 1008 10 NO 16.7
Ieri h: 19:15 sereno Sereno 17 12 72 1008 10 NO 14.8
Ieri h: 18:55 sereno Sereno 17 12 72 1008 10 NO 18.5
Ieri h: 18:35 sereno Sereno 18 12 67 1008 10 NO 16.7
Ieri h: 18:15 sereno Sereno 19 11 59 1008 10 NO 22.2
Ieri h: 17:55 sereno Sereno 19 12 63 1008 10 NO 22.2
Ieri h: 17:35 sereno Sereno 21 12 56 1008 10 NO 18.5
Ieri h: 17:15 sereno Sereno 20 12 59 1009 10 NO 18.5
Ieri h: 16:55 sereno Sereno 21 12 56 1009 10 NO 20.3
Ieri h: 16:35 sereno Sereno 22 12 53 1009 10 NO 20.3
Ieri h: 16:15 sereno Sereno 21 12 56 1009 10 NO 20.3
Ieri h: 15:55 sereno Sereno 20 12 59 1010 10 NO 18.5
Ieri h: 15:35 sereno Sereno 20 12 59 1010 10 NO 20.3
Ieri h: 15:15 sereno Sereno 21 12 56 1010 10 NO 20.3
Ieri h: 14:55 sereno Sereno 22 12 53 1010 10 O/NO 14.8
Ieri h: 14:35 sereno Sereno 21 12 56 1010 10 NO 20.3
Ieri h: 14:15 sereno Sereno 21 12 56 1011 10 NO 18.5
Ieri h: 13:55 sereno Sereno 21 12 56 1011 10 NO 20.3
Ieri h: 13:35 sereno Sereno 21 12 56 1011 10 NO 20.3
Ieri h: 13:15 sereno Sereno 21 12 56 1011 10 NO 18.5
Ieri h: 12:55 sereno Sereno 21 12 56 1012 10 NO 16.7
Ieri h: 12:35 sereno Sereno 21 12 56 1012 10 NO 18.5